STARLINK-35697

Last updated on Fri Dec 19 2025 00:02:05 GMT+0000 (Coordinated Universal Time)

1 66539U 25265Z 25352.50477597 -.00131246 00000+0 -22902-2 0 9995 2 66539 43.0002 20.1983 0001280 281.5307 78.5409 15.50318925 4657
UTC large
Height (km)
Speed (km/s)
/
Latitude / Longitude
Inclination (degrees)
Orbital Period (minutes)
Azimuth
Elevation
Range (km)
Doppler Factor

Next 0 passes for location: London (51.5072 / 0.1276)

Sorry there are no passes over London.